Theta_e
275 275 274 274 274 274 273 273 272 272 272 271 270 270 270 270 270 270 270 270 271 272 274 273 273 273 272 273 274 275 276 276 273 276 279 281 281 283 285 288 288 286 287
273 273 273 273 272 271 271 271 271 270 269 269 269 268 268 268 268 268 268 269 269 270 271 271 271 273 272 273 274 275 275 276 275 274 278 279 280 282 285 286 286 287 285
272 272 271 270 270 269 269 269 268 268 267 267 267 267 267 267 267 268 268 269 269 270 270 271 270 271 270 271 272 273 274 276 276 276 276 279 280 282 284 284 284 283 285
271 271 269 269 269 268 268 267 267 266 266 266 266 266 266 266 267 267 269 269 269 270 270 270 270 271 271 272 272 272 274 274 275 276 277 278 281 281 284 282 281 282 281
269 268 267 268 268 267 266 265 265 265 265 265 265 265 265 266 267 269 269 269 269 270 271 272 272 272 275 275 274 273 274 274 275 275 276 278 279 278 278 281 280 280 281
265 265 265 265 266 264 264 264 264 264 264 265 264 264 264 266 269 271 272 270 271 271 270 272 273 273 274 277 278 279 279 277 276 277 277 278 280 280 279 280 279 278 276
261 262 262 263 263 262 262 262 262 262 263 262 263 263 264 264 269 272 273 271 271 271 271 272 273 274 274 275 277 279 280 282 283 280 278 280 280 279 278 278 278 279 277
260 258 259 261 261 261 261 261 261 262 262 261 262 263 263 264 270 272 273 271 272 272 273 272 274 275 276 277 278 278 279 281 282 283 282 281 282 282 281 281 280 275 275
258 259 258 260 261 260 260 260 262 262 261 262 263 263 262 263 269 272 273 272 272 271 274 274 274 273 276 279 278 277 279 280 284 285 285 285 284 284 282 279 276 274 269
263 262 261 261 260 259 260 261 262 262 262 263 263 263 263 263 269 272 273 272 270 272 271 272 274 273 277 280 278 279 277 274 275 277 280 281 281 283 283 280 279 270 268
265 263 262 261 260 261 262 262 261 261 262 262 263 263 264 265 266 272 273 271 271 271 269 270 271 275 278 279 280 280 276 275 277 276 276 278 278 277 278 277 276 276 270
263 261 261 261 262 263 262 262 262 262 261 261 262 262 265 266 268 270 272 273 274 270 268 270 271 275 277 278 279 282 282 279 275 278 276 276 273 273 274 274 274 273 273
260 259 260 261 263 263 262 262 261 262 261 261 261 262 263 266 266 269 270 272 272 271 270 271 272 274 275 273 277 283 279 276 276 274 272 272 273 274 272 271 269 267 268
258 259 260 261 261 261 262 262 261 261 261 261 263 263 263 264 265 266 269 269 271 270 270 266 269 270 272 272 271 272 275 276 275 274 273 273 273 271 269 268 265 265 267
259 259 259 260 259 260 261 261 262 263 264 264 264 264 263 263 265 270 270 269 269 269 264 263 263 265 265 266 267 268 268 270 271 272 272 271 271 270 269 270 267 265 264
258 258 258 259 259 260 259 259 264 266 267 268 268 267 266 269 270 270 271 272 270 270 260 259 261 262 263 264 264 265 266 267 267 268 267 268 267 267 267 267 266 263 262
256 257 257 258 259 258 258 258 257 260 265 266 266 267 268 268 269 270 270 270 267 265 255 258 259 260 261 262 263 263 263 264 264 263 263 262 263 263 264 264 265 265 263
255 256 257 259 258 258 258 258 258 257 257 258 262 264 266 266 268 269 268 264 255 256 252 255 258 259 259 260 260 261 261 261 260 259 259 256 255 255 256 257 260 260 260
256 257 258 259 259 258 258 258 258 257 257 256 257 260 261 264 267 266 265 254 256 257 252 251 253 256 257 255 257 257 256 257 256 253 253 254 254 253 252 253 254 256 255
255 257 259 259 258 258 258 257 257 257 256 256 256 257 258 260 259 258 258 254 251 253 255 254 252 251 252 252 253 252 254 253 254 254 253 252 252 252 253 252 251 252 251
256 258 258 259 258 258 258 257 257 256 256 256 257 259 265 261 258 258 258 258 257 255 254 253 254 251 250 251 251 251 251 253 252 252 252 251 251 252 251 252 251 251 251
257 257 259 258 258 258 257 258 257 257 257 256 257 259 264 259 258 258 258 258 259 257 254 255 255 252 254 252 250 250 249 252 249 250 251 252 251 250 249 251 250 250 250
257 258 258 257 257 257 257 257 257 257 257 257 258 258 258 258 258 258 258 259 259 259 257 254 255 254 252 253 252 253 255 254 253 250 252 251 250 250 249 251 251 250 250
257 257 257 256 257 257 257 257 258 258 258 257 257 258 258 258 258 259 259 260 260 260 260 259 257 256 256 254 253 254 254 254 252 254 251 251 251 250 249 249 251 251 253
254 255 256 256 257 257 257 258 258 258 257 258 258 258 258 259 259 259 260 260 260 260 259 259 259 258 256 255 255 254 254 259 257 256 254 252 253 251 252 253 253 252 252
254 255 256 257 257 257 257 257 257 258 257 258 258 258 259 259 259 259 260 260 260 261 261 261 261 260 259 258 256 256 256 260 257 256 255 256 256 255 254 254 254 256 256
Wind_Speed
10 10 11 12 13 13 13 14 14 16 16 17 18 17 17 17 16 16 17 18 17 17 15 13 12 12 11 12 12 12 12 10 13 15 12 14 13 14 12 6 9 11 10
10 11 12 13 13 13 13 14 15 16 16 17 17 17 16 16 16 17 17 17 17 17 16 15 14 11 15 14 12 15 12 12 12 19 15 12 13 12 12 7 4 2 5
10 11 12 12 12 13 14 14 16 15 16 16 16 16 16 16 17 16 17 16 16 16 16 14 15 15 16 13 14 14 12 12 12 13 16 10 11 8 7 6 4 2 2
10 11 12 12 13 13 13 15 15 15 15 15 15 15 16 16 18 17 17 16 16 15 16 16 16 17 18 16 15 15 14 13 13 13 13 12 10 4 3 2 2 2 2
10 10 11 12 13 13 14 14 14 14 14 15 16 15 15 14 12 17 16 16 14 16 16 17 17 18 27 25 14 14 15 14 13 13 14 11 7 2 1 1 2 3 3
6 8 8 10 12 12 13 14 14 14 14 14 15 15 15 11 25 27 24 15 16 16 15 16 16 19 19 28 28 30 25 16 17 13 12 10 6 4 2 2 3 2 2
6 6 6 8 11 12 12 13 13 14 14 14 15 15 15 15 26 28 27 14 14 16 17 16 15 12 16 16 23 31 31 32 31 17 13 4 3 4 3 2 1 2 2
7 6 5 8 11 12 12 12 13 12 13 13 14 14 14 14 27 28 28 15 15 17 16 17 15 14 13 14 15 18 21 4 5 1 8 6 4 6 4 2 4 4 3
6 6 5 8 12 12 13 13 12 12 13 12 13 15 15 15 27 28 23 14 14 17 13 13 15 15 26 31 21 19 7 6 9 15 11 13 12 12 8 6 4 4 2
10 10 9 11 11 12 13 13 12 11 13 12 14 13 15 16 23 27 24 10 14 10 13 14 22 22 31 33 21 4 5 2 4 5 6 9 10 8 11 5 4 3 2
12 12 12 12 12 12 12 10 12 12 12 12 13 13 14 13 15 27 26 13 12 10 10 12 12 30 32 32 30 6 3 3 6 6 4 5 6 9 7 7 7 3 3
12 13 13 13 11 11 12 12 12 12 12 13 13 12 10 13 19 21 25 26 23 13 11 11 13 30 29 29 24 5 6 8 4 4 4 6 6 6 6 6 7 6 6
12 12 13 13 12 11 13 13 11 11 10 11 11 11 11 10 10 24 26 26 23 14 11 19 26 25 25 19 27 11 9 4 4 7 7 6 6 5 4 4 5 5 6
11 13 12 12 12 11 10 10 10 10 10 11 10 11 10 10 10 11 9 10 12 11 13 10 16 18 18 17 14 15 10 8 7 7 7 5 5 4 6 3 3 3 3
11 11 11 9 11 11 10 10 10 10 14 13 12 11 11 10 11 21 18 11 9 12 9 7 7 9 10 10 11 11 10 10 9 7 6 5 5 5 4 3 3 3 3
11 10 10 10 10 10 10 11 18 22 25 26 25 19 10 20 25 25 24 23 20 21 6 5 7 8 9 9 9 9 9 10 8 7 6 6 5 4 3 2 3 3 3
10 11 9 10 9 10 11 11 12 16 26 23 23 24 24 22 24 25 24 19 18 14 3 5 6 7 8 8 8 8 8 7 7 6 5 5 4 3 3 3 3 2 2
8 12 9 9 9 10 10 11 10 11 13 14 16 20 21 23 25 24 21 16 6 6 2 3 5 6 5 6 6 6 6 5 4 4 4 3 3 3 3 3 3 2 2
8 8 9 9 9 10 10 10 10 10 10 11 13 14 14 23 22 20 18 3 5 6 3 3 2 4 3 3 3 4 4 4 3 2 3 3 2 2 2 2 3 3 1
7 12 11 9 9 9 9 9 10 10 10 10 10 10 12 11 9 9 7 3 3 3 4 4 4 3 3 3 3 3 4 4 3 3 2 2 2 1 0 1 1 1 1
7 8 11 8 9 9 9 9 9 9 10 10 10 10 23 11 9 8 8 7 5 4 4 3 4 4 3 3 3 3 3 3 3 3 2 2 1 1 1 1 1 2 2
7 8 8 9 9 9 9 9 9 9 10 11 11 11 23 8 8 8 8 8 7 5 4 5 5 4 4 4 3 3 3 4 3 3 3 3 3 2 2 2 3 2 2
7 8 9 9 8 11 10 9 9 9 10 10 11 11 10 9 9 9 9 8 8 7 5 4 5 5 4 5 4 4 5 5 5 3 3 3 2 3 3 3 3 3 3
6 7 9 9 9 9 9 10 10 12 11 11 10 10 10 10 10 11 10 9 8 8 7 6 6 7 7 6 5 5 5 5 4 5 6 4 4 4 2 3 4 5 5
5 7 8 8 9 9 11 10 10 10 10 10 10 10 11 11 11 11 10 9 9 9 9 8 7 9 10 10 10 9 8 13 7 5 4 5 6 6 5 4 5 4 4
6 6 7 7 8 9 9 10 10 11 11 11 11 11 11 12 11 11 11 10 9 9 11 8 9 12 12 10 11 12 12 14 11 10 7 7 8 7 6 8 9 7 8
Wind_Direction
347 341 331 332 331 330 331 330 332 327 328 330 322 319 324 323 320 318 313 310 311 310 317 300 297 298 290 284 281 278 276 275 279 287 286 283 281 281 282 276 276 281 289
346 332 334 331 332 334 332 332 329 332 325 323 324 323 320 321 319 315 311 308 303 303 303 300 299 298 290 288 288 292 287 285 283 284 287 283 276 275 276 253 249 297 335
334 335 331 331 333 332 332 330 331 326 322 326 323 321 320 324 314 315 307 309 310 309 306 303 300 294 288 284 282 281 279 282 286 284 282 282 276 273 263 247 203 194 44
330 330 329 329 328 332 328 329 327 323 326 322 322 322 322 316 320 313 316 306 300 298 298 291 288 282 279 281 277 276 277 277 278 278 279 286 278 229 253 222 145 66 30
323 323 321 321 326 322 326 325 320 323 319 320 321 320 317 320 315 313 305 293 288 290 286 285 282 279 278 278 274 271 268 266 266 267 268 275 266 215 125 88 91 96 59
304 311 307 318 318 323 322 320 319 318 318 317 319 316 318 313 316 313 318 312 312 306 300 291 284 278 273 280 281 276 268 266 263 261 265 268 279 109 119 130 141 134 105
295 300 308 311 317 318 317 315 315 315 317 317 314 314 313 312 313 321 317 311 305 299 295 292 291 286 277 271 272 274 273 265 262 259 255 188 154 154 130 132 104 73 57
295 296 301 312 314 315 313 310 309 311 316 312 309 310 311 308 318 317 317 314 305 302 307 301 299 304 314 300 307 293 274 208 27 312 118 88 106 113 98 83 82 87 48
309 305 307 315 314 314 310 309 309 313 310 305 306 310 307 304 313 319 319 315 318 314 324 343 340 338 324 329 321 313 73 64 57 59 92 121 137 137 123 104 105 90 38
329 325 325 316 312 308 303 306 311 307 304 308 307 305 302 303 308 322 321 324 320 332 339 339 336 334 328 329 319 349 66 55 73 60 60 54 54 113 110 99 127 121 94
328 323 319 314 307 303 302 310 306 308 307 310 308 311 307 306 315 321 324 332 321 343 341 333 333 331 331 332 330 317 148 137 94 89 80 75 57 46 55 56 43 75 96
323 317 314 310 310 309 309 308 311 310 311 315 315 312 308 316 317 325 328 326 333 334 342 325 331 327 337 338 328 286 145 110 78 92 83 73 69 62 52 54 57 55 53
315 312 311 311 310 317 312 312 312 313 311 312 309 307 318 317 319 319 318 320 333 335 330 339 332 336 342 345 356 61 91 82 76 79 76 72 68 63 63 52 46 54 50
309 313 312 314 319 317 311 308 312 310 311 304 306 315 315 321 317 305 304 322 317 336 346 342 341 344 354 1 360 18 32 56 76 84 86 76 75 53 49 34 45 13 60
313 312 314 316 316 316 309 312 312 312 312 321 319 321 321 324 308 326 330 321 336 335 14 352 342 352 359 2 3 17 23 32 44 45 64 70 68 76 60 40 37 15 62
316 319 317 316 317 316 317 312 312 320 323 327 328 329 324 321 329 331 326 339 359 346 15 350 352 355 359 1 4 9 18 23 24 32 38 44 48 54 53 32 45 56 64
312 311 310 312 314 318 317 315 317 320 322 329 334 336 330 334 334 328 344 359 359 5 356 346 351 354 354 357 0 6 11 7 12 24 39 34 26 27 32 33 30 46 30
301 299 300 307 311 311 311 312 309 318 321 321 331 329 336 334 330 346 341 5 343 348 344 336 341 342 349 350 351 351 355 355 11 7 17 25 27 43 26 19 30 51 36
308 303 308 306 307 306 304 311 310 313 314 312 317 325 326 323 330 347 348 332 325 327 308 319 299 317 320 323 324 329 336 333 330 340 344 12 11 63 0 15 18 16 69
301 297 308 306 306 308 312 312 313 316 313 310 314 315 317 311 342 332 327 310 296 285 300 298 287 287 298 300 305 310 321 325 330 343 345 352 332 52 20 314 318 247 250
302 309 307 301 312 313 313 312 313 309 311 310 309 311 318 341 320 314 314 313 301 286 274 269 277 268 259 268 282 297 302 301 307 302 302 294 315 345 286 273 281 277 264
308 304 312 314 312 313 314 312 310 309 311 310 311 312 323 320 311 308 307 302 298 278 254 264 270 247 244 234 233 242 253 268 273 274 274 268 241 242 250 247 255 252 257
303 309 314 312 311 311 315 313 314 312 312 312 312 313 316 315 311 307 304 300 295 291 278 249 255 261 246 240 227 219 242 246 231 214 245 261 255 249 237 238 233 246 229
296 309 309 310 314 317 315 316 316 316 314 313 314 312 312 310 308 304 300 298 295 288 281 273 259 254 258 245 232 228 231 242 219 227 214 220 242 248 240 239 235 239 241
300 304 308 312 316 318 318 320 319 317 316 314 314 313 310 308 305 303 301 297 292 289 284 276 267 260 255 247 246 234 226 247 247 209 210 211 230 228 232 234 241 239 235
301 301 305 311 319 321 320 319 318 318 317 317 315 312 309 307 304 303 301 298 294 290 288 279 269 262 258 252 245 242 237 241 235 226 217 226 233 233 225 234 239 240 243